| time (UTC) | temp F | wind direction | speed MPH | gust MPH | rain 1hr in | rain 24hr in | rain mn in | humidity % | barometer mb |
| 20260508011513 | 67 | 342 | 2.0 | 4.0 | 0.00 | 0.00 | 0.00 | 57 | 1017.8 |
| 20260508010011 | 67 | 341 | 2.0 | 3.0 | 0.00 | 0.00 | 0.00 | 59 | 1018.0 |
| 20260508004516 | 67 | 340 | 2.0 | 4.0 | 0.00 | 0.00 | 0.00 | 54 | 1018.2 |
| 20260508003008 | 66 | 336 | 2.0 | 3.0 | 0.00 | 0.00 | 0.00 | 60 | 1018.2 |
| 20260508001517 | 66 | 334 | 1.0 | 4.0 | 0.00 | 0.00 | 0.00 | 59 | 1018.4 |
| 20260508000004 | 67 | 355 | 2.0 | 4.0 | 0.00 | 0.00 | 0.00 | 55 | 1018.5 |
| 20260507234504 | 66 | 346 | 2.0 | 4.0 | 0.00 | 0.00 | 0.00 | 56 | 1018.5 |
| 20260507233005 | 67 | 319 | 3.0 | 5.0 | 0.00 | 0.00 | 0.00 | 57 | 1018.5 |
| 20260507231501 | 65 | 325 | 3.0 | 5.0 | 0.00 | 0.00 | 0.00 | 58 | 1018.7 |
| 20260507230112 | 65 | 302 | 3.0 | 8.0 | 0.00 | 0.00 | 0.00 | 60 | 1018.9 |
| 20260507224600 | 65 | 292 | 3.0 | 7.0 | 0.00 | 0.00 | 0.00 | 61 | 1019.0 |
| 20260507223056 | 65 | 307 | 3.0 | 8.0 | 0.00 | 0.00 | 0.00 | 60 | 1019.1 |
| 20260507221555 | 65 | 327 | 3.0 | 8.0 | 0.00 | 0.00 | 0.00 | 61 | 1019.2 |
| 20260507220056 | 67 | 300 | 5.0 | 8.0 | 0.00 | 0.00 | 0.00 | 57 | 1019.4 |
| 20260507214550 | 67 | 311 | 4.0 | 8.0 | 0.00 | 0.00 | 0.00 | 57 | 1019.5 |
| 20260507213047 | 66 | 304 | 5.0 | 8.0 | 0.00 | 0.00 | 0.00 | 61 | 1019.7 |
| 20260507211544 | 65 | 310 | 4.0 | 8.0 | 0.00 | 0.00 | 0.00 | 58 | 1019.8 |
| 20260507210050 | 65 | 297 | 3.0 | 6.0 | 0.00 | 0.00 | 0.00 | 59 | 1020.1 |
| 20260507204539 | 64 | 308 | 3.0 | 7.0 | 0.00 | 0.00 | 0.00 | 60 | 1020.1 |
| 20260507203104 | 63 | 321 | 2.0 | 6.0 | 0.00 | 0.00 | 0.00 | 64 | 1020.4 |
| 20260507201534 | 62 | 297 | 3.0 | 6.0 | 0.00 | 0.00 | 0.00 | 62 | 1020.6 |
| 20260507200031 | 63 | 311 | 5.0 | 8.0 | 0.00 | 0.00 | 0.00 | 62 | 1020.6 |
| 20260507194530 | 63 | 304 | 4.0 | 8.0 | 0.00 | 0.00 | 0.00 | 68 | 1020.7 |
| 20260507193025 | 61 | 317 | 6.0 | 9.0 | 0.00 | 0.00 | 0.00 | 70 | 1020.7 |
| 20260507191521 | 60 | 292 | 4.0 | 9.0 | 0.00 | 0.00 | 0.00 | 72 | 1020.8 |
| 20260507190018 | 59 | 288 | 5.0 | 9.0 | 0.00 | 0.00 | 0.00 | 72 | 1020.9 |
| 20260507184520 | 58 | 304 | 3.0 | 9.0 | 0.00 | 0.00 | 0.00 | 74 | 1021.0 |
| 20260507183014 | 58 | 279 | 3.0 | 8.0 | 0.00 | 0.00 | 0.00 | 74 | 1021.1 |
| 20260507181511 | 58 | 256 | 5.0 | 9.0 | 0.00 | 0.00 | 0.00 | 77 | 1021.2 |
| 20260507180012 | 56 | 323 | 3.0 | 8.0 | 0.00 | 0.00 | 0.00 | 78 | 1021.3 |
| 20260507174508 | 55 | 316 | 3.0 | 8.0 | 0.00 | 0.00 | 0.00 | 79 | 1021.4 |
| 20260507173011 | 56 | 307 | 3.0 | 10.0 | 0.00 | 0.00 | 0.00 | 76 | 1021.4 |
| 20260507171503 | 56 | 303 | 5.0 | 9.0 | 0.00 | 0.00 | 0.00 | 79 | 1021.3 |
| 20260507170105 | 54 | 245 | 4.0 | 8.0 | 0.00 | 0.00 | 0.00 | 81 | 1021.2 |
| 20260507164558 | 52 | 314 | 3.0 | 8.0 | 0.00 | 0.00 | 0.00 | 83 | 1021.3 |
| 20260507163054 | 51 | 283 | 4.0 | 9.0 | 0.00 | 0.00 | 0.00 | 83 | 1021.4 |
| 20260507161604 | 51 | 275 | 5.0 | 10.0 | 0.00 | 0.00 | 0.00 | 82 | 1021.4 |
| 20260507160100 | 52 | 272 | 4.0 | 9.0 | 0.00 | 0.00 | 0.00 | 82 | 1021.4 |
| 20260507154550 | 52 | 290 | 4.0 | 10.0 | 0.00 | 0.00 | 0.00 | 83 | 1021.4 |
| 20260507153053 | 52 | 269 | 4.0 | 9.0 | 0.00 | 0.00 | 0.00 | 82 | 1021.3 |
| 20260507151546 | 52 | 261 | 5.0 | 8.0 | 0.00 | 0.00 | 0.00 | 81 | 1021.4 |
| 20260507150045 | 51 | 224 | 3.0 | 7.0 | 0.00 | 0.00 | 0.00 | 82 | 1021.4 |
| 20260507144542 | 51 | 251 | 4.0 | 8.0 | 0.00 | 0.00 | 0.00 | 84 | 1021.6 |
| 20260507143055 | 51 | 221 | 3.0 | 5.0 | 0.00 | 0.00 | 0.00 | 85 | 1021.6 |
| 20260507141550 | 51 | 162 | 2.0 | 5.0 | 0.00 | 0.00 | 0.00 | 86 | 1021.6 |
| 20260507140041 | 50 | 161 | 0.0 | 5.0 | 0.00 | 0.00 | 0.00 | 85 | 1021.5 |
| 20260507134541 | 50 | 161 | 1.0 | 6.0 | 0.00 | 0.00 | 0.00 | 85 | 1021.4 |
| 20260507133107 | 50 | 180 | 3.0 | 6.0 | 0.00 | 0.00 | 0.00 | 85 | 1021.3 |
| 20260507131544 | 50 | 157 | 4.0 | 8.0 | 0.00 | 0.00 | 0.00 | 84 | 1021.3 |
| 20260507130043 | 50 | 174 | 5.0 | 8.0 | 0.00 | 0.00 | 0.00 | 84 | 1021.2 |
| 20260507124534 | 50 | 151 | 3.0 | 6.0 | 0.00 | 0.00 | 0.00 | 84 | 1021.2 |
| 20260507123039 | 50 | 147 | 1.0 | 5.0 | 0.00 | 0.00 | 0.00 | 85 | 1021.3 |
| 20260507121533 | 51 | 148 | 2.0 | 6.0 | 0.00 | 0.00 | 0.00 | 85 | 1021.4 |
| 20260507120034 | 51 | 150 | 3.0 | 6.0 | 0.00 | 0.00 | 0.00 | 84 | 1021.5 |
| 20260507114528 | 51 | 150 | 3.0 | 7.0 | 0.00 | 0.00 | 0.00 | 84 | 1021.6 |
| 20260507113027 | 51 | 154 | 3.0 | 6.0 | 0.00 | 0.00 | 0.00 | 84 | 1021.6 |
| 20260507111524 | 51 | 153 | 2.0 | 6.0 | 0.00 | 0.00 | 0.00 | 85 | 1021.7 |
| 20260507110031 | 51 | 153 | 2.0 | 7.0 | 0.00 | 0.00 | 0.00 | 85 | 1021.7 |
| 20260507104523 | 51 | 168 | 3.0 | 6.0 | 0.00 | 0.00 | 0.00 | 87 | 1021.8 |
| 20260507103028 | 51 | 153 | 2.0 | 5.0 | 0.00 | 0.00 | 0.00 | 88 | 1021.8 |
| 20260507101532 | 51 | 156 | 2.0 | 6.0 | 0.00 | 0.00 | 0.00 | 89 | 1021.8 |
| 20260507100022 | 51 | 159 | 0.0 | 3.0 | 0.00 | 0.00 | 0.00 | 89 | 1021.9 |
| 20260507094518 | 51 | 159 | 1.0 | 3.0 | 0.00 | 0.00 | 0.00 | 89 | 1021.7 |
| 20260507093017 | 51 | 159 | 2.0 | 3.0 | 0.00 | 0.00 | 0.00 | 89 | 1021.7 |
| 20260507091520 | 51 | 159 | 1.0 | 5.0 | 0.00 | 0.00 | 0.00 | 89 | 1021.7 |
| 20260507090016 | 51 | 158 | 0.0 | 5.0 | 0.00 | 0.00 | 0.00 | 89 | 1021.7 |
| 20260507084519 | 51 | 157 | 1.0 | 5.0 | 0.00 | 0.00 | 0.00 | 89 | 1021.7 |
| 20260507083014 | 51 | 153 | 2.0 | 6.0 | 0.00 | 0.00 | 0.00 | 89 | 1021.7 |
| 20260507081515 | 52 | 174 | 2.0 | 7.0 | 0.00 | 0.00 | 0.00 | 88 | 1021.8 |
| 20260507080012 | 52 | 205 | 2.0 | 6.0 | 0.00 | 0.00 | 0.00 | 89 | 1021.7 |
| 20260507074509 | 51 | 227 | 1.0 | 6.0 | 0.00 | 0.00 | 0.00 | 89 | 1021.8 |
| 20260507073007 | 51 | 147 | 4.0 | 8.0 | 0.00 | 0.00 | 0.00 | 90 | 1021.8 |
| 20260507071510 | 51 | 208 | 3.0 | 8.0 | 0.00 | 0.00 | 0.00 | 91 | 1021.7 |
| 20260507070009 | 51 | 238 | 3.0 | 9.0 | 0.00 | 0.00 | 0.00 | 92 | 1021.8 |
| 20260507064505 | 51 | 238 | 3.0 | 7.0 | 0.00 | 0.00 | 0.00 | 92 | 1021.9 |
| 20260507063002 | 52 | 212 | 1.0 | 5.0 | 0.00 | 0.00 | 0.00 | 93 | 1021.8 |
| 20260507061503 | 52 | 230 | 2.0 | 5.0 | 0.00 | 0.00 | 0.00 | 92 | 1021.9 |
| 20260507060002 | 52 | 185 | 3.0 | 6.0 | 0.00 | 0.00 | 0.00 | 92 | 1021.8 |
| 20260507054500 | 52 | 202 | 2.0 | 9.0 | 0.00 | 0.00 | 0.00 | 91 | 1021.8 |
| 20260507053125 | 52 | 203 | 3.0 | 7.0 | 0.00 | 0.00 | 0.00 | 90 | 1021.8 |
| 20260507051559 | 53 | 252 | 2.0 | 7.0 | 0.00 | 0.00 | 0.00 | 89 | 1021.9 |
| 20260507050059 | 53 | 229 | 3.0 | 7.0 | 0.00 | 0.00 | 0.00 | 88 | 1021.9 |
| 20260507044622 | 53 | 244 | 3.0 | 12.0 | 0.00 | 0.00 | 0.00 | 87 | 1021.9 |
| 20260507043057 | 54 | 211 | 4.0 | 9.0 | 0.00 | 0.00 | 0.00 | 84 | 1021.8 |
| 20260507041556 | 54 | 182 | 3.0 | 7.0 | 0.00 | 0.00 | 0.00 | 83 | 1021.7 |
| 20260507034601 | 55 | 241 | 2.0 | 8.0 | 0.00 | 0.00 | 0.00 | 82 | 1021.5 |
| 20260507033107 | 55 | 228 | 2.0 | 5.0 | 0.00 | 0.00 | 0.00 | 82 | 1021.3 |
| 20260507031601 | 55 | 237 | 2.0 | 4.0 | 0.00 | 0.00 | 0.00 | 82 | 1021.3 |
| 20260507030107 | 55 | 230 | 2.0 | 8.0 | 0.00 | 0.00 | 0.00 | 81 | 1021.2 |
| 20260507024652 | 55 | 245 | 4.0 | 12.0 | 0.00 | 0.00 | 0.00 | 80 | 1021.1 |
| 20260507023051 | 56 | 252 | 1.0 | 10.0 | 0.00 | 0.00 | 0.00 | 80 | 1021.0 |
| 20260507021555 | 56 | 312 | 4.0 | 9.0 | 0.00 | 0.00 | 0.00 | 80 | 1020.9 |
| 20260507020058 | 56 | 229 | 6.0 | 12.0 | 0.00 | 0.00 | 0.00 | 79 | 1021.0 |
| 20260507014558 | 57 | 258 | 7.0 | 11.0 | 0.00 | 0.00 | 0.00 | 78 | 1020.9 |
| 20260507013058 | 57 | 230 | 3.0 | 10.0 | 0.00 | 0.00 | 0.00 | 79 | 1020.9 |